Location: ??
(35.4627°N, 139.3695°E)
Time: 04:26:01
(UTC+00:00)

BREEZE-M DEB (TANK) - Pass Details

Date: 25 November 2020
Orbit: 357 x 16370 km, 49.4° (Epoch: 19 January)

Event Time Altitude Azimuth Distance (km) Brightness Sun altitude
Exits shadow 19:13:21 29° 126° (SE) 888 3.8 -27.2°
Maximum altitude 19:13:23 29° 125° (SE) 890 3.8 -27.1°
Drops below altitude 10° 19:17:27 10° 63° (ENE) 2,486 6.3 -26.3°
Sets 19:21:54 0° 55° (NE) 4,624 7.7 -25.4°
